Flag for U.S.A. Weather past 2 weeks in Salem, Oregon, U.S.A.

Now
89 °F

Passing clouds.


Feels Like: 88 °F
Forecast: 63 / 88 °F
Wind: 5 mph from North

Location: McNary Field

Current Time: Jun 29, 2015 at 4:33:22 PM

Latest Report: Jun 29, 2015 at 3:56 PM


Visibility: 10 mi

Pressure: 29.97 "Hg

Humidity: 35%

Dew point: 58 °F

Location of SalemLocation

Historic Weather in Salem — Graph

°F

Salem temperature yesterday

Maximum temperature yesterday: 85 °F (at 2:56 PM)
Minimum temperature yesterday: 66 °F (at 4:56 AM)
Average temperature yesterday: 74 °F

Past Weeks' High & Low Weather Summary

 TemperatureHumidityPressure
High99 °F (Jun 26, 4:56 PM)90% (Jun 16, 5:56 AM)30.15 "Hg (Jun 16, 5:56 AM)
Low47 °F (Jun 16, 5:56 AM)15% (Jun 20, 2:56 PM)29.79 "Hg (Jun 14, 6:56 PM)
Average71 °F51%29.99 "Hg
* Reported Jun 14 2:56 PM — Jun 29 2:56 PM, Salem, Weather by CustomWeather, © 2015

Note: Actual official high and low records may vary slightly from our data, if they occured in-between our weather recording intervals... More about our weather records

Advertising

Salem weather history for previous 24 hours

 ConditionsComfort  
Time TempWeatherWind HumidityBarometerVisibility
2:56 PM
Mon, Jun 29
88 °FSunny.9 mph35%29.98 "Hg10 mi
1:56 PM86 °FSunny.N/A39%29.99 "Hg10 mi
12:56 PM81 °FSunny.6 mph45%30.01 "Hg10 mi
11:56 AM78 °FScattered clouds.8 mph48%30.02 "Hg10 mi
10:56 AM73 °FScattered clouds.5 mph55%30.03 "Hg10 mi
9:56 AM71 °FScattered clouds.6 mph57%30.03 "Hg10 mi
8:56 AM68 °FSunny.7 mph61%30.02 "Hg10 mi
7:56 AM66 °FSunny.8 mph65%30.01 "Hg10 mi
6:56 AM62 °FSunny.6 mph75%29.99 "Hg10 mi
5:56 AM60 °FClear.3 mph86%29.98 "Hg10 mi
4:56 AM62 °FClear.5 mph78%29.96 "Hg10 mi
3:56 AM64 °FClear.5 mph75%29.94 "Hg10 mi
2:56 AM64 °FClear.5 mph78%29.94 "Hg10 mi
1:56 AM67 °FClear.5 mph73%29.92 "Hg10 mi
12:56 AM70 °FClear.No wind76%29.91 "Hg10 mi
11:56 PM
Sun, Jun 28
72 °FClear.3 mph73%29.91 "Hg10 mi
10:56 PM73 °FClear.No wind69%29.91 "Hg10 mi
9:56 PM75 °FSunny.5 mph66%29.90 "Hg10 mi
8:56 PM78 °FSunny.7 mph56%29.90 "Hg10 mi
7:56 PM82 °FSunny.3 mph46%29.91 "Hg10 mi
6:56 PM82 °FSunny.7 mph44%29.91 "Hg10 mi
4:56 PM80 °FOvercast.3 mph52%29.93 "Hg10 mi
Weather by CustomWeather, © 2015

See weather overviewHow to use our weather pages